Location: Hohenfelde
(53.8441°N, 9.6220°E)
Time: 12:29:02
(UTC+00:00)

Cosmos 1666 - Pass Details

Date: 14 July 2020
Orbit: 497 x 521 km, 82.5° (Epoch: 12 August)

Event Time Altitude Azimuth Distance (km) Brightness Sun altitude
Exits shadow 01:13:18 - 161° (SSE) 1,833 5.1 -11.1°
Reaches altitude 10° 01:13:35 10° 160° (SSE) 1,723 4.9 -11.1°
Maximum altitude 01:17:03 36° 93° (E) 823 3.9 -10.9°
Drops below altitude 10° 01:20:31 10° 26° (NNE) 1,725 7.0 -10.7°
Sets 01:22:45 0° 18° (NNE) 2,611 8.3 -10.5°
